Location: Cussy
(47.0410°N, 4.6412°E)
Time: 04:33:02
(UTC+00:00)

SSES-1 - Visible Passes

Search period start: 15 June 2021 00:00
Search period end: 25 June 2021 00:00
Orbit: 479 x 500 km, 97.4° (Epoch: 14 June)

Date Brightness Start Highest point End Pass type
(mag) Time Alt. Az. Time Alt. Az. Time Alt. Az.
15 Jun ? 21:18:07 16° ESE 21:20:05 26° ENE 21:23:06 10° N visible
15 Jun ? 22:52:35 21° WSW 22:53:36 23° W 22:56:33 10° NW visible
16 Jun ? 20:55:21 10° E 20:57:29 15° ENE 20:59:38 10° NNE visible
16 Jun ? 22:29:33 32° SW 22:30:42 43° W 22:34:09 10° NNW visible
17 Jun ? 22:06:31 36° S 22:07:51 85° WSW 22:11:29 10° NNW visible
18 Jun ? 21:43:28 27° SE 21:45:05 49° ENE 21:48:36 10° N visible
18 Jun ? 23:17:56 11° WSW 23:18:57 13° W 23:20:33 10° WNW visible
19 Jun ? 21:20:25 17° ESE 21:22:24 27° ENE 21:25:30 10° N visible
19 Jun ? 22:54:53 20° WSW 22:55:56 22° W 22:58:50 10° NW visible
20 Jun ? 20:57:31 10° ESE 20:59:47 16° ENE 21:02:03 10° NNE visible
20 Jun ? 22:31:50 30° SW 22:33:00 40° W 22:36:27 10° NNW visible
21 Jun ? 22:08:48 36° S 22:10:09 80° WSW 22:13:47 10° NNW visible
22 Jun ? 21:45:45 28° SE 21:47:22 52° ENE 21:50:54 10° N visible
22 Jun ? 23:20:12 11° WSW 23:21:15 12° W 23:22:41 10° WNW visible
23 Jun ? 21:22:41 17° ESE 21:24:40 29° ENE 21:27:49 10° N visible
23 Jun ? 22:57:09 19° WSW 22:58:13 21° W 23:01:03 10° NW visible
24 Jun ? 20:59:38 10° ESE 21:02:00 17° ENE 21:04:24 10° NNE visible
24 Jun ? 22:34:06 29° SW 22:35:16 38° W 22:38:41 10° NNW visible
